Location: Gälforsberget
(66.6500°N, 22.4167°E)
Time: 22:01:04
(UTC+00:00)

Cosmos 44 - Pass Details

Date: 11 April 2026
Orbit: 568 x 782 km, 65.1° (Epoch: 11 May)

Event Time Altitude Azimuth Distance (km) Brightness Sun altitude
Exits shadow 22:52:06 23° 188° (S) 1,567 4.5 -14.7°
Maximum altitude 22:54:39 37° 138° (SE) 1,181 4.1 -14.6°
Drops below altitude 10° 22:59:34 10° 73° (ENE) 2,340 6.3 -14.6°
Sets 23:02:09 0° 65° (ENE) 3,278 7.2 -14.5°
